User: anonymous   Login
Location: Ravensburg
(47.7866°N, 9.6124°E)
Time: 19:41:19
(UTC+01:00)
Language:

FO-29 - Orbit

View from above orbital plane
View from above orbital plane
View from above satellite
View from above satellite

Ground track
Ground track

The orbit is defined by the following mean orbital elements,

1 24278U          26066.50267990 +.00000000 +00000-0 +22220-4 0 00006
2 24278  98.5383 289.2181 0349918   0.4413 359.6973 13.53268593    05
Epoch (UTC): 07 March 2026 12:03:51
Eccentricity: 0.0349918
inclination: 98.5383°
perigee height: 800 km
apogee height: 1321 km
right ascension of ascending node: 289.2181°
argument of perigee: 0.4413°
revolutions per day: 13.53268593
mean anomaly at epoch: 359.6973°

The dashed part of the orbit path shows where the satellite is in the earth's shadow,  

DLR